Regional Weather Roundup
Issued by NWS Kansas City/Pleasant Hill, MO

Home | Current Version | Previous Version | Graphics & Text | Print | Product List | Glossary Off
Versions: 1 2 3 4 5 6 7 8 9 10 11 12 13 14 15 16 17 18 19 20 21 22 23 24 25 26 27

000
ASUS43 KEAX 262110
RWREAX

WEATHER ROUNDUP FOR EASTERN KANSAS AND NORTHWEST MISSOURI
NATIONAL WEATHER SERVICE KANSAS CITY/PLEASANT HILL MO
400 PM CDT THU MAY 26 2016

KSZ040-057-103>105-MOZ028-029-037-043-262200-
...KANSAS CITY METROPOLITAN AREA...

CITY           SKY/WX    TMP DP  RH WIND       PRES   REMARKS
K.C. INTL      TSTM      69  63  81 NE14      29.80R
K.C. DOWNTOWN  CLOUDY    77  66  68 SE15G24   29.74F
LEES SUMMIT    CLOUDY    73  68  84 VRB5      29.79R THUNDER
OLATHE - IXD   CLOUDY    82  73  74 S10       29.78F
OLATHE - OJC   CLOUDY    79  71  76 SE10      29.78R
LAWRENCE       CLOUDY    68  60  75 N5G17     29.76S THUNDER

$$

MOZ001>008-011>017-020>025-030>033-038>040-044>046-053-054-262200-
...NORTHERN AND CENTRAL MISSOURI...

CITY           SKY/WX    TMP DP  RH WIND       PRES   REMARKS
ST. JOSEPH     TSTM      67  62  84 E36G49    29.83R
MOSBY          CLOUDY    72  61  68 SE7       29.81R
WARRENSBURG    PTSUNNY   77  63  61 E8        29.78F
WHITEMAN AFB   PTSUNNY   79  65  62 E6        29.79F
CLINTON        MOSUNNY   84  73  70 SE13G18   29.80F HX  91
SEDALIA        SUNNY     83  67  58 E9        29.83F
WARSAW         NOT AVBL
CHILLICOTHE      N/A     73  60  63 SE12      29.75F
KIRKSVILLE     PTSUNNY   79  62  56 S13       29.78F

$$

MOZ041-047>049-056>058-063>065-088>090-097-262200-
...EASTERN AND SOUTHERN MISSOURI...

CITY           SKY/WX    TMP DP  RH WIND       PRES   REMARKS
ST. LOUIS INTL PTSUNNY   81  66  60 S12       29.93F
SPIRIT OF STL  CLOUDY   N/A N/A N/A S12       29.91F
COLUMBIA       SUNNY     88  61  40 VRB5      29.85F
JEFFERSON CITY SUNNY     87  63  44 VRB6      29.84F
ROLLA          SUNNY     82  69  64 SE10      29.88F
SPRINGFIELD    MOSUNNY   87  70  56 S20       29.85F HX  92
BRANSON        CLOUDY    82  72  69 S17G28    29.90F
JOPLIN         MOSUNNY   86  72  62 S17G24    29.80F HX  92
WEST PLAINS    MOSUNNY   83  70  64 S14       29.93S

$$

IAZ060-094-KSZ022-034>040-054-083-096-NEZ052-066-093-262200-
...KANSAS...SOUTHEAST NEBRASKA AND IOWA...

CITY           SKY/WX    TMP DP  RH WIND       PRES   REMARKS
TOPEKA         TSTM      65  61  87 E7        29.79R
MANHATTAN      LGT RAIN  63  61  93 E8        29.77R
EMPORIA        TSTM      67  63  87 SE9       29.78R
CHANUTE        CLOUDY    83  72  69 S21       29.76F
WICHITA        CLOUDY    80  70  71 E7        29.73R
OMAHA          CLOUDY    77  63  61 N10       29.73F THUNDER
LINCOLN        TSTM      66  62  87 E10       29.79S FOG
FALLS CITY     CLOUDY    71  67  87 SE12      29.75R
LAMONI         CLOUDY    73  66  78 CALM      29.80F
DES MOINES     CLOUDY    79  66  64 E7        29.79F

$$





USA.gov is the U.S. government's official web portal to all federal, state and local government web resources and services.